Dumas, TX

11:05 PM CDT on March 27, 2017 (GMT -0500)
Moore County

Weather History for KDUX - May, 2013

Change the Weather History Date:

Sunday, May 12, 2013

  Actual Average (KDHT) Record (KDHT)
Temperature  
Mean Temperature 62 °F -  
Max Temperature 81 °F 77 °F 97 °F (1962)
Min Temperature 45 °F 46 °F 32 °F (1953)
Degree Days  
Heating Degree Days 2    
Growing Degree Days 12 (Base 50)    
Moisture  
Dew Point 38 °F    
Average Humidity 46    
Maximum Humidity 83    
Minimum Humidity 17    
Precipitation  
Precipitation 0.00 in - - ()
Sea Level Pressure  
Sea Level Pressure 30.21 in    
Wind  
Wind Speed 12 mph (SSW)    
Max Wind Speed 24 mph    
Max Gust Speed 34 mph    
Visibility 10 miles    
Events      
Averages and records for this station are not official NWS values.
T = Trace of Precipitation, MM = Missing Value Source: NWS Daily Summary

Daily Weather History Graph

Daily Weather History Graph

Search for Another Location

Airport or City:

Trip Planner

Search our weather history database for the weather conditions in past years. The results will help you decide how hot, cold, wet, or windy it might be!

Date:

Astronomy

May. 12, 2013 Rise Set
Actual Time 6:44 AM CDT 8:44 PM CDT
Civil Twilight 6:16 AM CDT 9:12 PM CDT
Nautical Twilight 5:42 AM CDT 9:47 PM CDT
Astronomical Twilight 5:05 AM CDT 10:24 PM CDT
Moon 8:42 AM CDT (5/12) 11:12 PM CDT (5/12)
Length of Visible Light 14h 56m
Length of Day
13h 59m
Waxing Crescent, 7% of the Moon is Illuminated
May 12
Waxing Crescent
May 17
First Quarter
May 24
Full
May 31
Last Quarter
Jun 8
New

Hourly Weather History & Observations

Time (CDT) Temp. Windchill Dew Point Humidity Pressure Visibility Wind Dir Wind Speed Gust Speed Precip Events Conditions
12:15 AM 49.1 °F - 39.9 °F 71% 30.31 in 10.0 mi SE 8.1 mph - N/A   Clear
12:35 AM 48.4 °F - 40.1 °F 73% 30.32 in 10.0 mi SSE 9.2 mph - N/A   Clear
12:55 AM 49.1 °F - 40.5 °F 72% 30.32 in 10.0 mi SSE 8.1 mph - N/A   Clear
1:15 AM 48.0 °F - 40.1 °F 74% 30.32 in 10.0 mi SSE 9.2 mph - N/A   Clear
1:35 AM 49.1 °F - 40.5 °F 72% 30.32 in 10.0 mi SSE 9.2 mph - N/A   Clear
1:55 AM 47.8 °F - 40.1 °F 75% 30.32 in 10.0 mi South 9.2 mph - N/A   Clear
2:15 AM 46.6 °F - 39.4 °F 76% 30.32 in 10.0 mi South 8.1 mph - N/A   Clear
2:35 AM 46.6 °F - 39.6 °F 77% 30.31 in 10.0 mi South 9.2 mph - N/A   Clear
2:55 AM 46.2 °F 42.2 °F 40.1 °F 79% 30.31 in 10.0 mi South 8.1 mph - N/A   Clear
3:15 AM 46.6 °F - 40.1 °F 78% 30.30 in 10.0 mi South 9.2 mph - N/A   Clear
3:35 AM 46.6 °F - 40.6 °F 80% 30.30 in 10.0 mi South 9.2 mph - N/A   Clear
3:55 AM 45.5 °F 40.8 °F 40.6 °F 83% 30.29 in 10.0 mi South 9.2 mph - N/A   Clear
4:35 AM 46.8 °F - 41.7 °F 83% 30.28 in 10.0 mi SSW 8.1 mph - N/A   Clear
4:55 AM 46.4 °F 42.9 °F 41.4 °F 83% 30.29 in 10.0 mi SSW 6.9 mph - N/A   Clear
5:15 AM 46.4 °F 42.4 °F 41.4 °F 83% 30.28 in 10.0 mi SSW 8.1 mph - N/A   Clear
5:35 AM 48.2 °F - 41.9 °F 79% 30.27 in 10.0 mi SSW 10.4 mph - N/A   Clear
5:55 AM 48.0 °F - 41.5 °F 78% 30.27 in 10.0 mi SSW 10.4 mph - N/A   Clear
6:15 AM 47.1 °F - 41.7 °F 81% 30.27 in 10.0 mi SSW 10.4 mph - N/A   Clear
6:35 AM 46.6 °F - 41.2 °F 81% 30.27 in 10.0 mi SSW 10.4 mph - N/A   Clear
6:55 AM 47.3 °F - 41.9 °F 82% 30.27 in 10.0 mi SSW 10.4 mph - N/A   Clear
7:15 AM 47.8 °F - 42.1 °F 80% 30.27 in 10.0 mi SSW 10.4 mph - N/A   Clear
7:35 AM 49.6 °F - 42.8 °F 77% 30.27 in 10.0 mi SSW 12.7 mph - N/A   Clear
7:55 AM 51.1 °F - 43.0 °F 74% 30.27 in 10.0 mi SSW 12.7 mph - N/A   Clear
8:15 AM 53.2 °F - 43.3 °F 69% 30.28 in 10.0 mi SSW 15.0 mph - N/A   Clear
8:35 AM 55.2 °F - 43.0 °F 63% 30.27 in 10.0 mi SSW 20.7 mph - N/A   Clear
8:55 AM 56.8 °F - 43.9 °F 62% 30.27 in 10.0 mi SW 19.6 mph - N/A   Clear
9:15 AM 57.9 °F - 44.4 °F 61% 30.26 in 10.0 mi SW 24.2 mph 28.8 mph N/A   Clear
9:35 AM 60.4 °F - 44.8 °F 56% 30.27 in 10.0 mi SW 21.9 mph 28.8 mph N/A   Clear
9:55 AM 62.4 °F - 45.1 °F 53% 30.26 in 10.0 mi SW 23.0 mph 26.5 mph N/A   Clear
10:15 AM 64.4 °F - 44.6 °F 49% 30.26 in 10.0 mi SW 23.0 mph 29.9 mph N/A   Clear
10:35 AM 66.0 °F - 44.1 °F 45% 30.26 in 10.0 mi SW 24.2 mph - N/A   Clear
10:55 AM 67.8 °F - 43.3 °F 41% 30.25 in 10.0 mi SW 23.0 mph - N/A   Clear
11:15 AM 69.6 °F - 42.3 °F 37% 30.25 in 10.0 mi WSW 23.0 mph 28.8 mph N/A   Clear
11:35 AM 70.3 °F - 40.8 °F 34% 30.24 in 10.0 mi SW 24.2 mph 27.6 mph N/A   Clear
11:55 AM 71.6 °F - 39.2 °F 31% 30.24 in 10.0 mi WSW 21.9 mph 31.1 mph N/A   Clear
12:15 PM 73.0 °F - 39.4 °F 30% 30.22 in 10.0 mi SW 24.2 mph 33.4 mph N/A   Clear
12:35 PM 74.1 °F - 39.0 °F 28% 30.22 in 10.0 mi WSW 21.9 mph 28.8 mph N/A   Clear
12:55 PM 75.4 °F - 38.1 °F 26% 30.21 in 10.0 mi WSW 18.4 mph 25.3 mph N/A   Clear
1:15 PM 76.1 °F - 36.7 °F 24% 30.20 in 10.0 mi SW 18.4 mph 24.2 mph N/A   Clear
1:35 PM 76.8 °F - 35.8 °F 23% 30.19 in 10.0 mi WSW 16.1 mph 27.6 mph N/A   Clear
1:55 PM 77.0 °F - 33.3 °F 20% 30.18 in 10.0 mi SW 11.5 mph 24.2 mph N/A   Clear
2:15 PM 78.3 °F - 35.4 °F 21% 30.17 in 10.0 mi WSW 13.8 mph 20.7 mph N/A   Clear
2:35 PM 79.0 °F - 33.4 °F 19% 30.17 in 10.0 mi SW 10.4 mph 20.7 mph N/A   Clear
2:55 PM 79.2 °F - 32.0 °F 18% 30.15 in 10.0 mi SW 12.7 mph 18.4 mph N/A   Clear
3:15 PM 79.7 °F - 31.6 °F 17% 30.15 in 10.0 mi SW 12.7 mph 18.4 mph N/A   Clear
3:35 PM 80.6 °F - 31.5 °F 17% 30.14 in 10.0 mi South 10.4 mph 19.6 mph N/A   Clear
3:55 PM 80.4 °F - 31.1 °F 17% 30.14 in 10.0 mi WSW 11.5 mph 19.6 mph N/A   Clear
4:15 PM 79.7 °F - 31.6 °F 17% 30.13 in 10.0 mi SW 12.7 mph 16.1 mph N/A   Clear
4:35 PM 78.3 °F - 33.4 °F 20% 30.14 in 10.0 mi WNW 19.6 mph 34.5 mph N/A   Scattered Clouds
4:55 PM 79.5 °F - 34.5 °F 20% 30.13 in 10.0 mi WSW 19.6 mph 26.5 mph N/A   Scattered Clouds
5:15 PM 78.8 °F - 34.0 °F 20% 30.13 in 10.0 mi WSW 17.3 mph 24.2 mph N/A   Clear
5:35 PM 78.6 °F - 34.2 °F 20% 30.12 in 10.0 mi WSW 18.4 mph 23.0 mph N/A   Clear
5:55 PM 79.0 °F - 34.3 °F 20% 30.11 in 10.0 mi SW 16.1 mph 24.2 mph N/A   Clear
6:15 PM 78.8 °F - 34.9 °F 20% 30.11 in 10.0 mi SW 16.1 mph - N/A   Clear
6:35 PM 77.5 °F - 34.9 °F 21% 30.10 in 10.0 mi SW 13.8 mph - N/A   Clear
6:55 PM 79.0 °F - 34.5 °F 20% 30.09 in 10.0 mi SSW 15.0 mph 19.6 mph N/A   Clear
7:15 PM 78.8 °F - 33.8 °F 20% 30.09 in 10.0 mi SSW 15.0 mph - N/A   Clear
7:35 PM 77.5 °F - 34.5 °F 21% 30.08 in 10.0 mi SSW 12.7 mph - N/A   Clear
7:55 PM 77.5 °F - 34.2 °F 21% 30.08 in 10.0 mi SSW 11.5 mph - N/A   Clear
8:15 PM 75.4 °F - 34.7 °F 23% 30.09 in 10.0 mi SSW 10.4 mph - N/A   Clear
8:35 PM 74.1 °F - 34.7 °F 24% 30.09 in 10.0 mi SSW 9.2 mph - N/A   Clear
8:55 PM 71.4 °F - 34.3 °F 26% 30.10 in 10.0 mi SW 10.4 mph - N/A   Clear
9:15 PM 69.8 °F - 34.2 °F 27% 30.10 in 10.0 mi SW 11.5 mph - N/A   Clear
9:35 PM 68.2 °F - 34.9 °F 29% 30.11 in 10.0 mi SW 11.5 mph - N/A   Clear
9:55 PM 67.8 °F - 34.7 °F 29% 30.12 in 10.0 mi SSW 12.7 mph - N/A   Clear
10:15 PM 65.7 °F - 35.6 °F 33% 30.12 in 10.0 mi SW 11.5 mph - N/A   Clear
10:35 PM 65.1 °F - 35.6 °F 33% 30.13 in 10.0 mi SSW 10.4 mph - N/A   Clear
10:55 PM 65.1 °F - 35.4 °F 33% 30.14 in 10.0 mi SW 12.7 mph - N/A   Clear
11:15 PM 63.0 °F - 35.6 °F 36% 30.14 in 10.0 mi SSW 12.7 mph - N/A   Clear
11:35 PM 62.1 °F - 35.6 °F 37% 30.14 in 10.0 mi SSW 10.4 mph - N/A   Clear
11:55 PM 63.0 °F - 35.4 °F 36% 30.14 in 10.0 mi SW 11.5 mph - N/A   Clear